Time,TemperatureF,DewpointF,PressureIn,WindDirection,WindDirectionDegrees,WindSpeedMPH,WindSpeedGustMPH,Humidity,HourlyPrecipIn,Conditions,Clouds,dailyrainin,SoftwareType,DateUTC
2014-09-19 00:13:00,52.0,50.0,-100.00,WSW,243,1.0,1.0,91,0.00,,,-99.99,,2014-09-19 04:13:00,
2014-09-19 00:24:00,53.0,50.0,-100.00,North,0,1.0,2.0,84,0.00,,,-99.99,,2014-09-19 04:24:00,
2014-09-19 00:34:00,53.0,50.0,-100.00,North,0,1.0,2.0,84,0.00,,,-99.99,,2014-09-19 04:34:00,
2014-09-19 00:53:00,53.0,50.0,-100.00,North,0,1.0,2.0,87,0.00,,,-99.99,,2014-09-19 04:53:00,
2014-09-19 01:13:00,53.0,49.0,-100.00,WSW,242,1.0,2.0,87,0.00,,,-99.99,,2014-09-19 05:13:00,
2014-09-19 01:22:00,53.0,49.0,-100.00,WSW,243,1.0,2.0,88,0.00,,,-99.99,,2014-09-19 05:22:00,
2014-09-19 01:33:00,53.0,49.0,-100.00,WSW,243,1.0,2.0,88,0.00,,,-99.99,,2014-09-19 05:33:00,
2014-09-19 01:53:00,52.0,49.0,-100.00,WSW,255,1.0,1.0,90,0.00,,,-99.99,,2014-09-19 05:53:00,
2014-09-19 02:12:00,53.0,49.0,-100.00,WSW,247,1.0,2.0,88,0.00,,,-99.99,,2014-09-19 06:12:00,
2014-09-19 02:22:00,53.0,49.0,-100.00,WSW,257,1.0,1.0,88,0.00,,,-99.99,,2014-09-19 06:22:00,
2014-09-19 02:32:00,53.0,49.0,-100.00,WSW,257,1.0,1.0,88,0.00,,,-99.99,,2014-09-19 06:32:00,
2014-09-19 02:53:00,52.0,49.0,-100.00,West,274,1.0,1.0,88,0.00,,,-99.99,,2014-09-19 06:53:00,
2014-09-19 03:12:00,53.0,49.0,-100.00,North,0,0.0,1.0,87,0.00,,,-99.99,,2014-09-19 07:12:00,
2014-09-19 03:22:00,53.0,49.0,-100.00,NW,325,1.0,2.0,86,0.00,,,-99.99,,2014-09-19 07:22:00,
2014-09-19 03:33:00,53.0,49.0,-100.00,NW,325,1.0,2.0,86,0.00,,,-99.99,,2014-09-19 07:33:00,
2014-09-19 03:53:00,52.0,49.0,-100.00,West,271,1.0,2.0,89,0.00,,,-99.99,,2014-09-19 07:53:00,
2014-09-19 04:13:00,51.0,49.0,-100.00,WSW,247,1.0,2.0,92,0.00,,,-99.99,,2014-09-19 08:13:00,
2014-09-19 04:23:00,52.0,49.0,-100.00,West,270,1.0,1.0,91,0.00,,,-99.99,,2014-09-19 08:23:00,
2014-09-19 04:32:00,52.0,49.0,-100.00,West,270,1.0,1.0,91,0.00,,,-99.99,,2014-09-19 08:32:00,
2014-09-19 04:52:00,50.0,49.0,-100.00,SW,234,1.0,2.0,94,0.00,,,-99.99,,2014-09-19 08:52:00,
2014-09-19 05:11:00,49.0,48.0,-100.00,WSW,241,1.0,2.0,95,0.00,,,-99.99,,2014-09-19 09:11:00,
2014-09-19 05:23:00,49.0,48.0,-100.00,WSW,242,1.0,2.0,95,0.00,,,-99.99,,2014-09-19 09:23:00,
2014-09-19 05:34:00,49.0,48.0,-100.00,WSW,242,1.0,2.0,95,0.00,,,-99.99,,2014-09-19 09:34:00,
2014-09-19 05:54:00,48.0,47.0,-100.00,WSW,237,1.0,2.0,96,0.00,,,-99.99,,2014-09-19 09:54:00,
2014-09-19 06:13:00,49.0,48.0,-100.00,SW,228,1.0,2.0,96,0.00,,,-99.99,,2014-09-19 10:13:00,
2014-09-19 06:23:00,49.0,48.0,-100.00,SW,228,1.0,2.0,96,0.00,,,-99.99,,2014-09-19 10:23:00,
2014-09-19 06:43:00,49.0,48.0,-100.00,SW,230,1.0,2.0,95,0.00,,,-99.99,,2014-09-19 10:43:00,
2014-09-19 06:54:00,49.0,48.0,-100.00,SW,230,1.0,2.0,95,0.00,,,-99.99,,2014-09-19 10:54:00,
2014-09-19 07:13:00,48.0,47.0,-100.00,WSW,243,1.0,2.0,96,0.00,,,-99.99,,2014-09-19 11:13:00,
2014-09-19 07:23:00,47.0,46.0,-100.00,WSW,242,1.0,1.0,97,0.00,,,-99.99,,2014-09-19 11:23:00,
2014-09-19 07:33:00,47.0,46.0,-100.00,WSW,242,1.0,1.0,97,0.00,,,-99.99,,2014-09-19 11:33:00,
2014-09-19 07:52:00,47.0,46.0,-100.00,WSW,246,1.0,2.0,97,0.00,,,-99.99,,2014-09-19 11:52:00,
2014-09-19 08:13:00,48.0,47.0,-100.00,West,259,1.0,1.0,97,0.00,,,-99.99,,2014-09-19 12:13:00,
2014-09-19 08:22:00,49.0,47.0,-100.00,West,281,1.0,2.0,96,0.00,,,-99.99,,2014-09-19 12:22:00,
2014-09-19 08:32:00,49.0,47.0,-100.00,West,281,1.0,2.0,96,0.00,,,-99.99,,2014-09-19 12:32:00,
2014-09-19 08:52:00,50.0,49.0,-100.00,WNW,295,1.0,1.0,94,0.00,,,-99.99,,2014-09-19 12:52:00,
2014-09-19 09:12:00,52.0,49.0,-100.00,NW,311,1.0,2.0,91,0.00,,,-99.99,,2014-09-19 13:12:00,
2014-09-19 09:22:00,55.0,50.0,-100.00,North,1,1.0,1.0,87,0.00,,,-99.99,,2014-09-19 13:22:00,
2014-09-19 09:32:00,55.0,50.0,-100.00,North,1,1.0,1.0,87,0.00,,,-99.99,,2014-09-19 13:32:00,
2014-09-19 09:53:00,56.0,51.0,-100.00,NNE,16,2.0,4.0,83,0.00,,,-99.99,,2014-09-19 13:53:00,
2014-09-19 10:12:00,58.0,52.0,-100.00,NE,53,2.0,5.0,81,0.00,,,-99.99,,2014-09-19 14:12:00,
2014-09-19 10:20:00,62.0,53.0,-100.00,East,91,2.0,4.0,73,0.00,,,-99.99,,2014-09-19 14:20:00,
2014-09-19 10:23:00,60.0,52.0,-100.00,ENE,67,3.0,4.0,76,0.00,,,-99.99,,2014-09-19 14:23:00,
2014-09-19 10:33:00,60.0,52.0,-100.00,ENE,67,3.0,4.0,76,0.00,,,-99.99,,2014-09-19 14:33:00,
2014-09-19 10:52:00,62.0,53.0,-100.00,East,91,2.0,4.0,73,0.00,,,-99.99,,2014-09-19 14:52:00,
2014-09-19 11:02:00,62.0,53.0,-100.00,East,91,2.0,4.0,73,0.00,,,-99.99,,2014-09-19 15:02:00,
2014-09-19 11:11:00,62.0,53.0,-100.00,East,91,2.0,4.0,73,0.00,,,-99.99,,2014-09-19 15:11:00,
2014-09-19 12:54:00,69.0,52.0,-100.00,NE,55,3.0,6.0,55,0.00,,,-99.99,,2014-09-19 16:54:00,